TimeEST,TemperatureF,Dew PointF,Humidity,Sea Level PressureIn,VisibilityMPH,Wind Direction,Wind SpeedMPH,Gust SpeedMPH,PrecipitationIn,Events,Conditions,WindDirDegrees,DateUTC
12:53 AM,30.0,27.0,88,30.18,-9999.0,Calm,Calm,-,N/A,,Unknown,0,2014-01-19 05:53:00
1:53 AM,30.0,27.0,88,30.17,-9999.0,Calm,Calm,-,N/A,,Unknown,0,2014-01-19 06:53:00
2:53 AM,30.0,28.0,92,30.16,-9999.0,Calm,Calm,-,N/A,,Unknown,0,2014-01-19 07:53:00
3:53 AM,30.0,27.0,88,30.16,-9999.0,Calm,Calm,-,N/A,,Unknown,0,2014-01-19 08:53:00
4:53 AM,30.0,28.0,92,30.16,-9999.0,Calm,Calm,-,N/A,,Unknown,0,2014-01-19 09:53:00
5:53 AM,30.0,28.0,92,30.16,-9999.0,Calm,Calm,-,N/A,,Unknown,0,2014-01-19 10:53:00
6:53 AM,30.0,28.0,92,30.17,-9999.0,Calm,Calm,-,N/A,,Unknown,0,2014-01-19 11:53:00
7:53 AM,32.0,30.0,92,30.17,-9999.0,Calm,Calm,-,N/A,,Unknown,0,2014-01-19 12:53:00
8:53 AM,48.0,45.0,89,30.17,-9999.0,Calm,Calm,-,N/A,,Unknown,0,2014-01-19 13:53:00
9:53 AM,55.9,48.9,77,30.19,-9999.0,Calm,Calm,-,N/A,,Unknown,0,2014-01-19 14:53:00
10:53 AM,53.1,51.1,93,30.22,-9999.0,WSW,6.9,-,0.11,,Unknown,240,2014-01-19 15:53:00
11:53 AM,54.0,52.0,93,30.21,-9999.0,SW,5.8,-,0.02,,Unknown,220,2014-01-19 16:53:00
12:53 PM,57.9,53.1,84,30.16,-9999.0,SW,5.8,-,N/A,,Unknown,230,2014-01-19 17:53:00
1:53 PM,62.1,50.0,65,30.12,-9999.0,WSW,8.1,-,N/A,,Unknown,250,2014-01-19 18:53:00
2:53 PM,63.0,45.0,52,30.11,-9999.0,WSW,15.0,-,N/A,,Unknown,250,2014-01-19 19:53:00
3:53 PM,61.0,46.9,60,30.11,-9999.0,West,13.8,19.6,N/A,,Unknown,280,2014-01-19 20:53:00
4:53 PM,60.1,46.9,62,30.11,-9999.0,West,9.2,-,N/A,,Unknown,260,2014-01-19 21:53:00
5:53 PM,55.9,50.0,80,30.11,-9999.0,SW,5.8,-,N/A,,Unknown,220,2014-01-19 22:53:00
6:53 PM,51.1,50.0,96,30.12,-9999.0,SSW,3.5,-,N/A,,Unknown,200,2014-01-19 23:53:00
7:53 PM,48.0,46.9,96,30.12,-9999.0,South,3.5,-,N/A,,Unknown,180,2014-01-20 00:53:00
8:53 PM,44.1,44.1,100,30.13,-9999.0,Calm,Calm,-,N/A,,Unknown,0,2014-01-20 01:53:00
9:53 PM,42.1,41.0,96,30.14,-9999.0,Calm,Calm,-,N/A,,Unknown,0,2014-01-20 02:53:00
10:53 PM,39.9,39.9,100,30.15,-9999.0,Calm,Calm,-,N/A,,Unknown,0,2014-01-20 03:53:00
11:53 PM,37.9,37.9,100,30.14,-9999.0,Calm,Calm,-,N/A,,Unknown,0,2014-01-20 04:53:00